[[{"header":{"parameterUnit":"m.s-1","parameterCategory":1,"la1":30.2991,"la2":30.254,"lo1":-89.0895,"lo2":-89.0444,"dy":0.0017,"dx":0.0017,"nx":28,"ny":28,"refTime":"2024-10-08T21:00:00:Z","depth":0,"parameterNumber":2,"parameterNumberName":"U-component_of_WINDS"},"data":[0,0,0,0,0,0,0,0,0,0,0,0,0,0,0,0,0,0,0,0,0,0,0,0,0,0,0,0,0,0,0,0,0,0,0,0,0,0,0,0,0,0,0,0,0,0,0,0,0,0,0,0,0,0,0,0,0,0,-1.4191,-1.4192,0,-1.427,-1.4271,-1.4272,-1.4242,-1.424,-1.4238,-1.4236,-1.4318,-1.4322,-1.4326,0,0,0,0,0,0,0,0,0,0,0,0,0,-1.4014,-1.4017,-1.4191,-1.4192,-1.4193,-1.427,-1.4271,-1.4272,-1.4242,-1.424,-1.4237,-1.4235,-1.4317,-1.4322,-1.4326,0,0,0,0,0,0,0,0,0,0,0,0,0,-1.4092,-1.4018,-1.4191,-1.4187,-1.4188,-1.427,-1.4271,-1.4273,-1.4242,-1.424,-1.4237,-1.4234,-1.4315,-1.4321,-1.4327,-1.4418,0,0,-1.4345,-1.4347,0,0,0,0,0,0,0,0,-1.4087,-1.4098,-1.4187,-1.4188,-1.4188,-1.4243,-1.4239,-1.4321,-1.4243,-1.4222,-1.4236,-1.4233,-1.4296,-1.4303,-1.4324,-1.4422,-1.4425,-1.4345,-1.4349,-1.4351,-1.4353,0,0,0,0,0,0,0,-1.4082,-1.4095,-1.4222,-1.4188,-1.4189,-1.4182,-1.419,-1.4254,-1.4273,-1.4223,-1.4221,-1.4231,-1.4295,-1.4318,-1.4326,-1.4427,-1.4345,-1.435,-1.4354,-1.4356,-1.4603,-1.4606,0,0,0,0,0,0,-1.4076,-1.409,-1.422,-1.4225,-1.413,-1.4187,-1.4196,-1.4228,-1.4272,-1.4276,-1.4233,-1.4229,-1.431,-1.4319,-1.4328,-1.4439,-1.4351,-1.4357,-1.436,-1.46,-1.4604,-1.4607,0,0,0,0,0,0,-1.4072,-1.4088,-1.4217,-1.4157,-1.4173,-1.4193,-1.423,-1.4231,-1.4254,-1.428,-1.4283,-1.4253,-1.4308,-1.432,-1.4396,-1.4441,-1.4359,-1.4365,-1.4597,-1.4601,-1.4606,-1.4659,0,0,0,0,0,0,-1.4068,-1.4087,-1.4122,-1.4158,-1.4176,-1.4283,-1.4232,-1.4235,-1.4264,-1.426,-1.4299,-1.4303,-1.4307,-1.4387,-1.4402,-1.4447,-1.4369,-1.4593,-1.4599,-1.4604,-1.4654,-1.4665,-1.4675,0,0,0,0,0,-1.4061,-1.4134,-1.4124,-1.414,-1.422,-1.4286,-1.4296,-1.4298,-1.4268,-1.4303,-1.432,-1.4302,-1.4433,-1.4395,-1.4411,-1.446,-1.459,-1.4597,-1.4604,-1.4649,-1.4663,-1.4675,0,0,0,0,0,0,-1.4103,-1.4139,-1.4128,-1.4214,-1.4247,-1.4281,-1.4325,-1.4313,-1.4356,-1.435,-1.4351,-1.436,-1.4438,-1.4456,-1.4413,-1.455,-1.4507,-1.4517,-1.4536,-1.4549,-1.456,-1.4555,-1.4374,0,0,0,0,0,-1.4122,-1.4172,-1.4201,-1.4274,-1.4291,-1.4305,-1.4334,-1.4333,-1.4367,-1.4381,-1.4403,-1.4437,-1.4486,-1.4518,-1.4565,-1.4655,-1.4664,-1.4696,-1.4707,-1.4715,-1.4725,-1.4775,-1.479,-1.463,-1.463,-1.463,0,0,-1.4163,-1.4188,-1.422,-1.4283,-1.4309,-1.4361,-1.4317,-1.4375,-1.4413,-1.439,-1.4463,-1.448,-1.4518,-1.4602,-1.464,-1.4619,-1.4771,-1.4724,-1.4731,-1.4736,-1.4783,-1.4799,-1.4812,-1.4635,-1.4634,-1.4633,0,0,-1.4263,-1.4287,-1.4351,-1.4377,-1.4416,-1.4425,-1.444,-1.4475,-1.4486,-1.4559,-1.4542,-1.4588,-1.4672,-1.47,-1.4726,-1.4835,-1.4821,-1.485,-1.4907,-1.4955,-1.4968,-1.4979,-1.502,-1.5034,-1.4859,-1.4859,-1.486,0,-1.4309,-1.4387,-1.4386,-1.4445,-1.4473,-1.4453,-1.4518,-1.4544,-1.4596,-1.4616,-1.4591,-1.4696,-1.4721,-1.4811,-1.4838,-1.4858,-1.4876,-1.4847,-1.4966,-1.4977,-1.4988,-1.5027,-1.5042,-1.4863,-1.4862,-1.4862,-1.4862,0,-1.4441,-1.4496,-1.4543,-1.4593,-1.4627,-1.4689,-1.4697,-1.4731,-1.4726,-1.4738,-1.4812,-1.484,-1.4892,-1.4913,-1.4909,-1.5003,-1.4989,-1.4965,-1.4923,-1.5007,-1.5043,-1.5058,-1.4868,-1.4867,-1.4866,-1.4865,0,0,-1.4573,-1.4621,-1.4639,-1.4662,-1.4702,-1.4744,-1.4804,-1.4855,-1.4884,-1.492,-1.4971,-1.5042,-1.5021,-1.5049,-1.5048,-1.509,-1.5177,-1.5062,-1.5062,-1.5083,-1.5283,-1.5302,-1.5319,-1.5166,-1.5169,-1.5171,-1.528,0,-1.4678,-1.4784,-1.4785,-1.4883,-1.4933,-1.4914,-1.4966,-1.4997,-1.5009,-1.5053,-1.5066,-1.5117,-1.5084,-1.5101,-1.5142,-1.5158,-1.5217,-1.5149,-1.5215,-1.5217,-1.5208,-1.5338,-1.5358,-1.5459,-1.5294,-1.5296,-1.5298,0,-1.4815,-1.4856,-1.4959,-1.4992,-1.5013,-1.5061,-1.5107,-1.5149,-1.5183,-1.5188,-1.522,-1.5212,-1.5273,-1.5227,-1.5312,-1.5266,-1.5292,-1.5304,-1.5308,-1.5316,-1.5265,-1.5351,-1.5492,-1.5508,-1.532,-1.5319,-1.5317,0,-1.4903,-1.4983,-1.5055,-1.5075,-1.5115,-1.5148,-1.5167,-1.5198,-1.5228,-1.5268,-1.5287,-1.5334,-1.536,-1.5396,-1.5401,-1.5366,-1.5487,-1.544,-1.5494,-1.5494,-1.5522,-1.5521,-1.5671,-1.5536,-1.5536,-1.5535,-1.5535,0,-1.5021,-1.5086,-1.5095,-1.5139,-1.5211,-1.521,-1.528,-1.5296,-1.5323,-1.5371,-1.5356,-1.5401,-1.5403,-1.5449,-1.5453,-1.5523,-1.5535,-1.5541,-1.5542,-1.5544,-1.5543,-1.5563,-1.5557,-1.5539,-1.5538,-1.5538,-1.5537,0,-1.5132,-1.5141,-1.5218,-1.5249,-1.5259,-1.531,-1.5337,-1.5379,-1.5388,-1.5449,-1.5462,-1.5478,-1.5531,-1.5538,-1.56,-1.5603,-1.5688,-1.568,-1.5677,-1.5676,-1.573,-1.5725,-1.59,-1.5923,-1.5771,-1.5772,-1.5774,0,-1.5209,-1.5258,-1.5294,-1.5324,-1.5344,-1.5393,-1.5424,-1.5424,-1.5457,-1.5499,-1.5536,-1.5588,-1.5629,-1.5715,-1.5732,-1.5779,-1.5773,-1.5831,-1.5781,-1.5781,-1.5776,-1.5774,-1.5779,-1.5842,-1.5843,-1.5845,-1.5846,0,-1.5344,-1.5345,-1.5389,-1.5436,-1.5472,-1.5508,-1.5542,-1.5568,-1.5573,-1.561,-1.5664,-1.5696,-1.5759,-1.5811,-1.5857,-1.5876,-1.5862,-1.5861,-1.5876,-1.588,-1.5877,-1.5881,-1.5705,-1.5858,-1.5857,-1.5856,-1.5855,-1.5855,-1.5441,-1.5483,-1.5516,-1.5565,-1.5591,-1.5623,-1.5665,-1.5679,-1.5724,-1.5775,-1.5772,-1.5832,-1.5864,-1.5925,-1.5947,-1.5993,-1.5975,-1.5996,-1.6002,-1.6008,-1.6014,-1.5867,-1.6002,-1.6001,-1.6001,-1.6001,-1.6,0,-1.5576,-1.5596,-1.5641,-1.5689,-1.5729,-1.5711,-1.5747,-1.5782,-1.5834,-1.5865,-1.5906,-1.5968,-1.6017,-1.6037,-1.6086,-1.6119,-1.6114,-1.6132,-1.6131,-1.6135,-1.6027,-1.601,-1.6135,-1.6135,-1.6135,-1.6135,-1.6135,-1.6135,-1.5652,-1.5723,-1.5728,-1.5812,-1.5831,-1.5889,-1.5912,-1.5941,-1.5966,-1.6036,-1.6077,-1.6089,-1.6116,-1.6166,-1.621,-1.6215,-1.6234,-1.6255,-1.6257,-1.6156,-1.6143,-1.613,-1.6114,-1.6259,-1.6259,-1.6362,-1.6363,-1.6363]},{"header":{"parameterUnit":"m.s-1","parameterCategory":1,"la1":30.2991,"la2":30.254,"lo1":-89.0895,"lo2":-89.0444,"dy":0.0017,"dx":0.0017,"nx":28,"ny":28,"refTime":"2024-10-08T21:00:00:Z","depth":0,"parameterNumber":3,"parameterNumberName":"V-component_of_WINDS"},"data":[0,0,0,0,0,0,0,0,0,0,0,0,0,0,0,0,0,0,0,0,0,0,0,0,0,0,0,0,0,0,0,0,0,0,0,0,0,0,0,0,0,0,0,0,0,0,0,0,0,0,0,0,0,0,0,0,0,0,-5.8422,-5.8423,0,-5.8508,-5.8509,-5.851,-5.8419,-5.8416,-5.8412,-5.8409,-5.8492,-5.8498,-5.8503,0,0,0,0,0,0,0,0,0,0,0,0,0,-5.8172,-5.8177,-5.8422,-5.8423,-5.8424,-5.8508,-5.8509,-5.8511,-5.842,-5.8416,-5.8411,-5.8407,-5.8491,-5.8497,-5.8504,0,0,0,0,0,0,0,0,0,0,0,0,0,-5.8272,-5.8179,-5.8422,-5.8389,-5.8387,-5.8508,-5.8509,-5.8511,-5.8421,-5.8415,-5.841,-5.8405,-5.8488,-5.8496,-5.8505,-5.866,0,0,-5.853,-5.8533,0,0,0,0,0,0,0,0,-5.8266,-5.8281,-5.8393,-5.8391,-5.8389,-5.8448,-5.8452,-5.8561,-5.8422,-5.8408,-5.8409,-5.8403,-5.8481,-5.849,-5.8517,-5.8664,-5.8668,-5.853,-5.8535,-5.8539,-5.8541,0,0,0,0,0,0,0,-5.8259,-5.8277,-5.8456,-5.8394,-5.8392,-5.8368,-5.8376,-5.8472,-5.8473,-5.8409,-5.8402,-5.8414,-5.8479,-5.851,-5.8519,-5.8669,-5.853,-5.8537,-5.8543,-5.8546,-5.8947,-5.8953,0,0,0,0,0,0,-5.8257,-5.8272,-5.8453,-5.8458,-5.8314,-5.8377,-5.8386,-5.8434,-5.8472,-5.8472,-5.8418,-5.8409,-5.8498,-5.8509,-5.8521,-5.8706,-5.8539,-5.8547,-5.8551,-5.8942,-5.8949,-5.8955,0,0,0,0,0,0,-5.8252,-5.8274,-5.8449,-5.8363,-5.8384,-5.8387,-5.8441,-5.8439,-5.8469,-5.8479,-5.8478,-5.845,-5.8495,-5.851,-5.8627,-5.8708,-5.855,-5.8558,-5.8935,-5.8944,-5.8952,-5.9078,0,0,0,0,0,0,-5.8245,-5.8273,-5.8333,-5.8365,-5.8389,-5.8556,-5.8446,-5.8444,-5.8484,-5.8473,-5.8508,-5.8509,-5.8492,-5.8615,-5.8635,-5.8716,-5.8564,-5.8928,-5.8939,-5.8949,-5.9066,-5.909,-5.911,0,0,0,0,0,-5.8236,-5.8364,-5.8337,-5.8359,-5.8465,-5.8561,-5.8574,-5.8553,-5.8491,-5.8551,-5.8557,-5.8508,-5.8696,-5.8628,-5.8649,-5.8735,-5.8922,-5.8936,-5.8948,-5.9057,-5.9085,-5.9109,0,0,0,0,0,0,-5.834,-5.8368,-5.8338,-5.848,-5.8519,-5.8545,-5.862,-5.8584,-5.8639,-5.8626,-5.8596,-5.8605,-5.8729,-5.8743,-5.8667,-5.8887,-5.8799,-5.8817,-5.8874,-5.8901,-5.8922,-5.8916,-5.8571,0,0,0,0,0,-5.838,-5.8457,-5.8476,-5.86,-5.8621,-5.8618,-5.8658,-5.8639,-5.8677,-5.8693,-5.8707,-5.8745,-5.8812,-5.8857,-5.8919,-5.9068,-5.9073,-5.9137,-5.9158,-5.9176,-5.9192,-5.9271,-5.9299,-5.8997,-5.8997,-5.8997,0,0,-5.8462,-5.8486,-5.8537,-5.8621,-5.8649,-5.8728,-5.8632,-5.8719,-5.8777,-5.8705,-5.8817,-5.8829,-5.8869,-5.9002,-5.9062,-5.9018,-5.9276,-5.9192,-5.9206,-5.9213,-5.9287,-5.9316,-5.9341,-5.9006,-5.9004,-5.9003,0,0,-5.8652,-5.8679,-5.8785,-5.8815,-5.8859,-5.8856,-5.8881,-5.8913,-5.8919,-5.9032,-5.8979,-5.9046,-5.9163,-5.9193,-5.9224,-5.9426,-5.9382,-5.9447,-5.956,-5.9637,-5.9661,-5.9682,-5.9754,-5.978,-5.9462,-5.9463,-5.9463,0,-5.8748,-5.8867,-5.8844,-5.8936,-5.8974,-5.8914,-5.902,-5.905,-5.9111,-5.9138,-5.9088,-5.9234,-5.9256,-5.9396,-5.9445,-5.9472,-5.9499,-5.9443,-5.966,-5.968,-5.9699,-5.9768,-5.9795,-5.947,-5.9469,-5.9469,-5.9468,0,-5.8983,-5.9066,-5.9146,-5.9209,-5.9256,-5.9355,-5.9345,-5.9394,-5.9371,-5.9373,-5.9487,-5.9512,-5.9578,-5.961,-5.9587,-5.9746,-5.9718,-5.9664,-5.9575,-5.9736,-5.98,-5.9826,-5.9481,-5.9479,-5.9476,-5.9474,0,0,-5.9241,-5.9291,-5.932,-5.9348,-5.9392,-5.9455,-5.955,-5.9616,-5.966,-5.9704,-5.9782,-5.9882,-5.9833,-5.9868,-5.9848,-5.9916,-6.0074,-5.9854,-5.9854,-5.9894,-6.0251,-6.0291,-6.0322,-6.0045,-6.005,-6.0054,-6.0247,0,-5.9433,-5.96,-5.9582,-5.9741,-5.9817,-5.9761,-5.9843,-5.9878,-5.9882,-5.9945,-5.9948,-6.002,-5.995,-5.9971,-6.0036,-6.0041,-6.0145,-6.0027,-6.0116,-6.012,-6.0109,-6.0355,-6.0398,-6.058,-6.0272,-6.0276,-6.0279,0,-5.9679,-5.9734,-5.9901,-5.9934,-5.9965,-6.004,-6.0099,-6.0161,-6.0199,-6.0196,-6.0236,-6.0204,-6.0297,-6.0206,-6.0334,-6.0254,-6.0289,-6.0297,-6.0304,-6.0311,-6.021,-6.037,-6.0637,-6.0665,-6.0318,-6.0315,-6.0312,0,-5.9851,-5.9967,-6.0082,-6.0107,-6.0147,-6.0201,-6.022,-6.0253,-6.0294,-6.0345,-6.0372,-6.0433,-6.0466,-6.0513,-6.0497,-6.0432,-6.0629,-6.0536,-6.0628,-6.0629,-6.0673,-6.067,-6.095,-6.0695,-6.0695,-6.0694,-6.0694,0,-6.0067,-6.0172,-6.016,-6.0231,-6.0345,-6.0322,-6.0436,-6.0447,-6.0477,-6.0548,-6.0502,-6.0568,-6.0544,-6.0609,-6.0596,-6.0704,-6.0719,-6.0719,-6.0715,-6.0724,-6.0724,-6.0747,-6.0734,-6.0701,-6.07,-6.0698,-6.0697,0,-6.0279,-6.0276,-6.0397,-6.0426,-6.0436,-6.0519,-6.0542,-6.0608,-6.0608,-6.0698,-6.0718,-6.0718,-6.0792,-6.0781,-6.0862,-6.0854,-6.0989,-6.0968,-6.0977,-6.0972,-6.1066,-6.1057,-6.137,-6.141,-6.1129,-6.1132,-6.1134,0,-6.0418,-6.0498,-6.0535,-6.0581,-6.0604,-6.0677,-6.0719,-6.0699,-6.0744,-6.0793,-6.0853,-6.0923,-6.0978,-6.1099,-6.1105,-6.1167,-6.1148,-6.1253,-6.1157,-6.1163,-6.115,-6.1146,-6.1153,-6.1273,-6.1276,-6.1278,-6.128,0,-6.0665,-6.0659,-6.0723,-6.0787,-6.0839,-6.0888,-6.0931,-6.097,-6.0954,-6.1007,-6.1083,-6.1126,-6.121,-6.128,-6.1339,-6.1355,-6.1316,-6.1311,-6.1336,-6.1346,-6.1348,-6.1348,-6.1029,-6.1304,-6.1301,-6.13,-6.1299,-6.1298,-6.0844,-6.0913,-6.095,-6.1023,-6.1054,-6.1096,-6.1159,-6.1168,-6.1232,-6.13,-6.1283,-6.137,-6.1404,-6.1478,-6.1502,-6.1567,-6.1528,-6.1564,-6.1573,-6.1582,-6.1594,-6.1337,-6.1577,-6.1577,-6.1576,-6.1576,-6.1575,0,-6.1089,-6.1111,-6.1178,-6.1241,-6.1298,-6.1257,-6.1303,-6.1353,-6.143,-6.1467,-6.1522,-6.1609,-6.1677,-6.1689,-6.1752,-6.1803,-6.1786,-6.182,-6.1816,-6.1821,-6.1625,-6.1598,-6.1833,-6.1833,-6.1833,-6.1833,-6.1832,-6.1832,-6.1223,-6.1336,-6.1335,-6.1462,-6.1482,-6.1568,-6.1598,-6.1636,-6.1665,-6.1765,-6.1822,-6.1829,-6.1855,-6.1921,-6.198,-6.1981,-6.2007,-6.2049,-6.2043,-6.186,-6.1835,-6.181,-6.1784,-6.2055,-6.2055,-6.2234,-6.2235,-6.2237]}]]